{"data":{"norad_id":53698,"epoch":"2026-09-20T22:50:14.840160Z","epoch_age_seconds":110728,"freshness":"FRESH","line1":"1 53698U 22106A   26263.95156065  .00000071  00000+0  24898-4 0  9990","line2":"2 53698  98.1848 270.3949 0001402 173.9196 186.2021 14.58752381215684","mean_motion":14.58752381,"eccentricity":0.0001402,"inclination_deg":98.1848,"raan_deg":270.3949,"arg_perigee_deg":173.9196,"mean_anomaly_deg":186.2021,"bstar":2.4898e-5,"rev_number":21568,"period_min":98.714491832593,"perigee_km":696.21334489543,"apogee_km":698.19727087857,"semimajor_km":7075.342307887,"source":"CELESTRAK","updated_at":"2026-09-21T09:00:09.175498Z"}}